Weather History for Port Hedland, WE

Change the Weather History Date:

Saturday, April 12, 2014

  Actual Average Record
Temperature  
Mean Temperature 88 °F -  
Max Temperature 102 °F 92 °F 102 °F (2014)
Min Temperature 73 °F 67 °F 60 °F (2012)
Cooling Degree Days 22    
Growing Degree Days 38 (Base 50)    
Moisture  
Dew Point 62 °F    
Average Humidity 53    
Maximum Humidity 88    
Minimum Humidity 7    
Precipitation  
Precipitation 0.00 in 0.03 in - ()
Sea Level Pressure  
Sea Level Pressure 29.83 in    
Wind  
Wind Speed 8 mph ()    
Max Wind Speed 22 mph    
Max Gust Speed -    
Visibility 6.2 miles    
Events      
Averages and records for this station are not official NWS values.
T = Trace of Precipitation, MM = Missing Value Source: Averaged Metar Reports

Daily Weather History Graph

Daily Weather History Graph

Search for Another Location

Airport:

Trip Planner

Search our weather history database for the weather conditions in past years. The results will help you decide how hot, cold, wet, or windy it might be!

Date:

Astronomy

Apr. 12, 2014 Rise Set
Actual Time 6:15 AM AWST 5:56 PM AWST
Civil Twilight 5:53 AM AWST 6:19 PM AWST
Nautical Twilight 5:27 AM AWST 6:44 PM AWST
Astronomical Twilight 5:01 AM AWST 7:10 PM AWST
Moon 3:54 PM AWST (4/12) 3:22 AM AWST (4/12)
Length of Visible Light 12h 25m
Length of Day
11h 41m
Waxing Gibbous, 90% of the Moon is Illuminated
Apr 12
Waxing Gibbous
Apr 15
Full
Apr 22
Last Quarter
Apr 29
New
May 7
First Quarter

Hourly Weather History & Observations

Time (AWST) Temp. Heat Index Dew Point Humidity Pressure Visibility Wind Dir Wind Speed Gust Speed Precip Events Conditions
12:00 AM 76 °F - 70 °F 78% 29.85 in - WSW 5.8 mph - -  
12:00 AM 77.0 °F - 69.8 °F 78% 29.83 in 6.2 mi WSW 5.8 mph - N/A   Unknown
12:30 AM 77.0 °F - 71.6 °F 83% 29.83 in 6.2 mi SW 5.8 mph - N/A   Unknown
1:00 AM 77.0 °F - 71.6 °F 83% 29.83 in 6.2 mi SW 4.6 mph - N/A   Scattered Clouds
1:30 AM 75.2 °F - 69.8 °F 83% 29.83 in 6.2 mi SSW 4.6 mph - N/A   Unknown
2:00 AM 74 °F - 70 °F 84% 29.84 in - SW 2.3 mph - -  
2:00 AM 75.2 °F - 69.8 °F 83% 29.83 in 6.2 mi SW 2.3 mph - N/A   Unknown
2:30 AM 75.2 °F - 69.8 °F 83% 29.83 in 6.2 mi SW 4.6 mph - N/A   Mostly Cloudy
3:00 AM 75 °F - 70 °F 79% 29.84 in - SSE 4.6 mph - -  
3:00 AM 75.2 °F - 69.8 °F 83% 29.83 in 6.2 mi SSE 4.6 mph - N/A   Scattered Clouds
3:30 AM 73.4 °F - 69.8 °F 88% 29.83 in 6.2 mi SSE 3.5 mph - N/A   Scattered Clouds
4:00 AM 73.4 °F - 68.0 °F 83% 29.83 in 6.2 mi SSE 4.6 mph - N/A   Unknown
4:30 AM 75.2 °F - 68.0 °F 78% 29.83 in 6.2 mi SE 5.8 mph - N/A   Scattered Clouds
5:00 AM 74 °F - 68 °F 76% 29.85 in - ESE 6.9 mph - -  
5:00 AM 73.4 °F - 68.0 °F 83% 29.83 in 6.2 mi ESE 6.9 mph - N/A   Mostly Cloudy
5:30 AM 75.2 °F - 66.2 °F 73% 29.86 in 6.2 mi SE 5.8 mph - N/A   Scattered Clouds
6:00 AM 76 °F - 64 °F 57% 29.86 in - ESE 6.9 mph - -  
6:00 AM 77.0 °F - 64.4 °F 65% 29.86 in 6.2 mi ESE 6.9 mph - N/A   Unknown
6:30 AM 75.2 °F - 62.6 °F 65% 29.86 in 6.2 mi ESE 5.8 mph - N/A   Unknown
7:00 AM 78.8 °F - 62.6 °F 57% 29.86 in 6.2 mi ESE 8.1 mph - N/A   Mostly Cloudy
7:30 AM 84.2 °F 83.0 °F 55.4 °F 37% 29.89 in 6.2 mi East 9.2 mph - N/A   Scattered Clouds
8:00 AM 88 °F - 52 °F 20% 29.89 in - East 13.8 mph - -  
8:00 AM 87.8 °F - 51.8 °F 29% 29.89 in 6.2 mi East 13.8 mph - N/A   Unknown
8:30 AM 89.6 °F - 50.0 °F 26% 29.89 in 6.2 mi East 15.0 mph - N/A   Unknown
9:00 AM 90 °F - 49 °F 15% 29.90 in - East 17.3 mph - -  
9:00 AM 89.6 °F - 48.2 °F 24% 29.89 in 6.2 mi East 17.3 mph - N/A   Unknown
9:30 AM 93.2 °F - 48.2 °F 21% 29.89 in 6.2 mi ESE 17.3 mph - N/A   Unknown
10:00 AM 93.2 °F - 46.4 °F 20% 29.89 in 6.2 mi East 19.6 mph - N/A   Unknown
10:30 AM 95.0 °F - 44.6 °F 18% 29.86 in 6.2 mi East 21.9 mph - N/A   Unknown
11:00 AM 95 °F - 47 °F 11% 29.87 in - ESE 17.3 mph - -  
11:00 AM 95.0 °F - 46.4 °F 19% 29.86 in 6.2 mi ESE 17.3 mph - N/A   Unknown
11:30 AM 96.8 °F - 46.4 °F 18% 29.86 in 6.2 mi East 15.0 mph - N/A   Unknown
12:00 PM 97 °F - 47 °F 10% 29.84 in - East 13.8 mph - -  
12:00 PM 96.8 °F - 46.4 °F 18% 29.83 in 6.2 mi East 13.8 mph - N/A   Unknown
12:30 PM 98.6 °F - 46.4 °F 17% 29.80 in 6.2 mi ESE 12.7 mph - N/A   Unknown
1:00 PM 100.4 °F - 44.6 °F 15% 29.80 in 6.2 mi ESE 13.8 mph - N/A   Unknown
1:30 PM 102.2 °F - 41.0 °F 12% 29.77 in 6.2 mi ESE 17.3 mph - N/A   Unknown
2:00 PM 100 °F - 42 °F 7% 29.78 in - SE 13.8 mph - -  
2:00 PM 100.4 °F - 42.8 °F 14% 29.77 in 6.2 mi SE 13.8 mph - N/A   Unknown
2:30 PM 100.4 °F - 41.0 °F 13% 29.77 in 6.2 mi SSE 11.5 mph - N/A   Unknown
3:00 PM 94 °F - 62 °F 25% 29.77 in - North 15.0 mph - -  
3:00 PM 95.0 °F 96.0 °F 62.6 °F 34% 29.77 in 6.2 mi North 15.0 mph - N/A   Unknown
3:30 PM 93.2 °F 94.1 °F 62.6 °F 36% 29.77 in 6.2 mi North 12.7 mph - N/A   Unknown
4:00 PM 93.2 °F 94.9 °F 64.4 °F 38% 29.77 in 6.2 mi North 12.7 mph - N/A   Unknown
4:30 PM 91.4 °F 93.2 °F 64.4 °F 41% 29.77 in 6.2 mi North 12.7 mph - N/A   Unknown
5:00 PM 89 °F - 67 °F 38% 29.78 in - North 11.5 mph - -  
5:00 PM 89.6 °F 92.2 °F 66.2 °F 46% 29.77 in 6.2 mi North 11.5 mph - N/A   Unknown
5:30 PM 87.8 °F 90.4 °F 66.2 °F 49% 29.77 in 6.2 mi North 10.4 mph - N/A   Unknown
6:00 PM 86 °F - 69 °F 49% 29.80 in - NNW 8.1 mph - -  
6:00 PM 86.0 °F 90.4 °F 69.8 °F 58% 29.80 in 6.2 mi NNW 8.1 mph - N/A   Unknown
6:30 PM 84.2 °F 88.4 °F 69.8 °F 62% 29.80 in 6.2 mi NNW 5.8 mph - N/A   Unknown
7:00 PM 82.4 °F 86.3 °F 69.8 °F 66% 29.83 in 6.2 mi NW 4.6 mph - N/A   Unknown
7:30 PM 80.6 °F 84.6 °F 71.6 °F 74% 29.83 in 6.2 mi NW 5.8 mph - N/A   Unknown
8:00 PM 80 °F - 72 °F 69% 29.85 in - WNW 5.8 mph - -  
8:00 PM 80.6 °F 84.6 °F 71.6 °F 74% 29.83 in 6.2 mi WNW 5.8 mph - N/A   Unknown
8:30 PM 80.6 °F 84.6 °F 71.6 °F 74% 29.86 in 6.2 mi WNW 4.6 mph - N/A   Unknown
9:00 PM 79 °F - 72 °F 74% 29.86 in - WNW 4.6 mph - -  
9:00 PM 78.8 °F - 71.6 °F 78% 29.86 in 6.2 mi WNW 4.6 mph - N/A   Unknown
9:30 PM 78.8 °F - 71.6 °F 78% 29.86 in 6.2 mi WSW 5.8 mph - N/A   Unknown
10:00 PM 78.8 °F - 71.6 °F 78% 29.86 in 6.2 mi SW 4.6 mph - N/A   Unknown
10:30 PM 77.0 °F - 71.6 °F 83% 29.86 in 6.2 mi South 3.5 mph - N/A   Unknown
11:00 PM 76 °F - 71 °F 78% 29.87 in - South 5.8 mph - -  
11:00 PM 75.2 °F - 69.8 °F 83% 29.86 in 6.2 mi South 5.8 mph - N/A   Unknown
11:30 PM 75.2 °F - 69.8 °F 83% 29.86 in 6.2 mi SSE 5.8 mph - N/A   Unknown